User: anonymous   Login
Location: Wildlife_Club
(35.6000°N, 81.4330°W)
Time: 18:13:30
(UTC-04:00)
Language:

Explorer 11/Cluster Stage 4 - Orbit

View from above orbital plane
View from above orbital plane
View from above satellite
View from above satellite

Ground track
Ground track

The orbit data is extracted from the following two-line orbital elements,

1   107U 61013A   19175.09686659  .00000367  00000-0  31764-4 0  9992
2   107  28.7881  50.7206 0547246  52.2408 312.6474 14.08788212915051
Epoch (UTC): 24 June 2019 02:19:29
Eccentricity: 0.0547246
inclination: 28.7881°
perigee height: 467 km
apogee height: 1260 km
right ascension of ascending node: 50.7206°
argument of perigee: 52.2408°
revolutions per day: 14.08788212
mean anomaly at epoch: 312.6474°
orbit number at epoch: 91505

The dashed part of the orbit path shows where the satellite is in the earth's shadow,  

DLR